Theta_e
308 305 305 307 306 304 304 303 304 304 304 304 304 304 304 305 305 305 306 306 306 306 306 307 307 308 308 311 317 319 318 317 318 318 320 322 319 320 320 320 320 321 322 323 331 337 337 338 340 341 343 342 339 336 341 344 339 335 340 338 330 333 336 339 347 346 344 348 351 350 350 351 351 350 349 348 349 349 350 350 349 349 349 350 352 352 353 353
309 307 304 306 308 306 305 304 304 304 304 304 304 304 304 304 305 305 306 305 306 306 306 307 307 308 308 311 317 318 316 317 318 320 324 323 324 323 322 320 319 321 321 323 330 334 332 332 334 338 339 338 335 334 339 341 337 336 340 337 332 338 338 339 344 344 345 348 350 351 350 350 350 350 349 349 350 349 351 352 351 351 351 352 353 353 353 353
310 309 306 305 307 308 307 304 304 304 304 304 304 304 304 304 305 305 306 306 306 306 307 307 307 308 307 311 317 315 317 320 321 322 323 324 325 322 323 322 319 320 320 322 325 326 324 326 331 336 334 332 332 332 336 336 336 337 338 339 338 339 337 338 342 343 344 348 351 351 349 350 349 349 348 350 351 350 353 353 352 353 352 351 352 353 353 353
310 310 309 307 305 307 308 305 304 304 303 303 304 304 304 305 305 305 306 306 306 307 307 307 307 308 307 312 316 315 318 323 320 319 323 322 322 323 324 324 323 321 321 322 323 323 323 325 330 331 329 329 329 331 334 335 337 336 337 341 339 337 336 338 339 341 344 348 350 350 350 349 349 348 348 349 350 350 352 351 351 352 352 352 350 352 353 353
309 309 309 309 307 305 308 307 304 303 303 304 304 304 304 305 305 305 305 306 306 307 308 308 308 308 308 313 316 316 319 323 317 320 323 321 322 324 326 326 325 324 323 322 323 324 323 325 328 328 327 328 329 331 333 335 336 336 337 339 337 336 338 338 338 340 345 348 349 349 349 349 348 348 347 349 349 349 349 349 350 351 352 351 350 352 353 354
310 309 308 309 308 305 306 307 304 303 303 303 304 304 305 305 305 305 305 306 306 308 308 308 309 308 308 313 317 318 320 320 319 321 321 321 322 323 326 326 325 325 324 323 324 324 324 325 324 325 327 328 331 331 331 331 332 335 335 335 335 335 338 337 337 341 346 348 349 349 348 348 348 348 347 347 347 347 347 348 349 351 352 352 352 352 351 352
309 309 309 308 308 305 305 307 304 303 303 303 304 304 304 305 305 306 305 306 307 308 309 309 310 308 308 315 320 320 319 320 322 322 322 322 321 322 324 324 325 326 324 325 326 324 324 323 322 325 327 327 329 331 331 329 330 335 334 332 333 334 336 336 337 342 346 348 348 347 347 348 349 349 347 346 347 347 347 348 349 352 354 353 352 351 351 352
309 309 309 309 309 307 305 306 304 302 303 303 304 304 304 305 305 306 306 306 308 309 310 311 310 309 311 317 320 318 318 321 322 322 322 322 321 323 324 327 329 327 324 326 326 324 324 322 322 325 327 327 328 331 329 327 328 331 331 330 330 333 336 335 338 343 346 347 347 346 347 349 348 348 347 347 348 348 348 349 350 352 352 352 351 351 351 353
309 309 309 310 310 308 305 305 304 302 303 303 303 304 304 305 305 305 306 307 308 310 312 313 310 311 314 316 317 318 320 321 321 323 323 322 322 323 324 328 329 326 324 325 324 324 324 322 323 326 328 327 329 331 327 327 329 327 328 330 331 333 336 336 340 344 346 346 346 347 348 348 346 347 347 348 349 348 349 350 351 352 351 351 351 351 352 351
309 309 308 309 310 308 305 304 304 302 303 303 303 304 304 305 305 306 308 308 309 312 314 313 310 313 316 317 316 319 322 320 321 323 323 322 322 322 324 327 327 325 324 323 322 325 324 323 326 327 328 328 328 329 326 327 327 327 331 333 333 335 336 338 341 344 345 345 346 348 348 348 346 347 348 348 349 349 350 352 351 352 352 352 351 352 354 353
309 309 308 308 309 308 307 305 303 303 303 303 303 303 304 305 305 308 309 309 312 316 316 312 311 314 317 319 318 320 321 320 321 322 323 321 321 322 324 326 326 324 324 323 323 324 323 323 328 328 328 328 327 327 325 326 328 331 335 337 335 336 337 339 342 343 345 346 346 347 348 348 347 347 349 349 350 350 351 353 352 353 353 353 352 352 355 355
309 309 308 308 308 308 308 306 302 302 303 303 304 304 304 304 307 309 308 313 319 319 316 313 312 315 318 318 318 320 321 320 321 322 322 322 322 322 324 325 325 324 324 324 324 324 323 324 326 326 326 327 328 327 325 328 333 336 338 339 338 339 339 340 342 343 345 346 345 346 345 347 350 347 350 350 349 351 352 353 353 353 353 353 354 353 354 355
308 308 308 308 308 307 307 306 302 302 303 303 304 304 304 306 308 308 312 320 323 319 315 314 314 317 319 318 319 321 321 322 322 322 323 324 323 323 325 324 323 324 324 324 324 323 323 325 325 323 324 325 326 325 326 334 338 340 340 340 339 338 340 341 341 343 346 344 345 345 336 341 351 347 350 351 350 352 353 354 353 353 354 353 354 353 353 355
308 308 308 307 307 307 306 305 303 302 302 303 304 304 305 307 308 312 320 324 321 317 315 314 317 320 320 318 322 324 324 324 324 325 326 326 324 323 325 324 323 323 323 324 323 321 323 325 324 322 323 324 324 325 332 338 338 342 340 340 341 331 333 343 342 342 347 343 346 344 330 336 351 348 350 351 349 352 353 354 353 353 354 353 354 353 352 354
308 308 307 307 308 307 306 305 303 301 302 303 303 305 307 307 311 318 323 322 319 317 316 317 320 322 321 321 324 325 325 325 324 325 327 327 325 323 325 324 324 324 323 323 321 321 322 324 323 321 323 322 323 330 339 340 340 343 333 331 338 330 332 346 342 342 347 343 346 343 332 338 348 348 351 351 350 352 353 354 353 353 353 353 353 353 352 353
307 307 307 307 307 307 306 304 302 301 302 302 303 307 307 308 317 323 322 320 318 317 318 322 322 322 324 324 325 324 325 326 324 325 326 326 325 324 324 323 324 323 323 323 321 321 321 323 322 321 323 322 324 334 339 335 336 341 333 326 331 331 333 342 342 343 345 345 346 343 338 342 346 348 351 350 351 352 353 354 353 353 353 353 353 353 353 353
307 307 307 306 306 305 305 303 302 301 302 303 305 307 308 315 323 322 320 319 318 320 322 324 323 322 324 323 324 325 326 325 324 324 324 324 325 324 322 321 321 321 321 322 321 321 321 322 321 320 323 322 326 336 333 325 326 332 334 331 331 334 333 335 341 344 343 346 347 345 344 344 346 350 352 351 351 352 353 354 353 353 353 353 353 352 353 353
307 307 307 306 305 303 303 302 301 302 302 304 306 306 313 323 325 322 322 322 320 322 323 323 322 322 321 323 325 324 323 323 322 323 323 324 325 323 322 321 320 321 321 320 320 321 320 321 321 322 323 322 327 334 325 322 327 327 328 329 329 334 335 335 340 344 345 346 347 346 346 345 347 350 352 351 351 351 353 353 353 353 353 353 353 352 353 353
307 307 307 306 305 302 302 302 301 302 303 306 306 307 317 324 323 322 324 323 321 324 325 325 324 322 320 322 322 322 322 321 322 323 324 325 325 322 320 320 319 320 320 320 320 320 320 321 321 319 321 322 326 331 327 330 336 334 332 332 329 330 334 340 342 342 346 347 348 347 345 347 349 351 353 351 351 352 352 353 353 353 352 352 353 352 353 352
306 306 307 306 305 302 302 301 301 302 305 307 306 309 317 319 320 322 320 317 316 319 320 321 323 323 321 321 320 321 321 321 322 323 324 324 324 322 320 318 319 319 319 319 320 320 321 321 320 319 321 323 324 327 329 332 338 339 336 333 333 330 332 342 344 341 345 346 346 349 346 346 350 351 353 352 352 353 352 354 353 353 353 352 353 352 352 352
306 306 306 305 305 302 301 302 301 304 306 304 304 311 314 313 315 314 312 312 313 314 315 315 318 320 319 319 320 321 321 322 322 323 325 324 324 324 322 319 320 321 318 319 319 320 321 319 319 321 322 324 324 325 326 328 335 341 336 330 332 331 332 341 343 339 344 345 344 348 347 345 349 351 352 352 353 354 353 354 354 353 353 352 353 352 352 352
306 306 305 305 304 302 301 302 301 306 307 303 305 310 311 309 309 309 309 310 312 313 313 314 315 316 317 318 319 319 320 321 321 322 324 323 323 325 323 319 322 323 319 318 319 320 320 319 320 323 322 323 324 323 324 327 333 338 336 330 326 329 332 335 340 340 342 343 343 346 345 344 348 349 351 352 353 354 352 352 353 353 354 353 352 352 352 352
306 306 305 305 303 302 301 302 304 309 306 303 306 308 310 308 306 307 309 310 312 313 313 314 314 315 316 317 318 319 319 321 321 322 323 323 323 323 323 321 323 322 318 318 320 318 316 318 321 321 319 322 323 323 325 326 328 333 334 328 324 329 330 326 332 341 343 342 343 345 343 344 347 347 350 351 351 353 352 351 352 351 353 353 352 352 352 352
306 305 305 305 303 303 302 302 306 308 304 304 306 308 310 307 305 307 310 311 314 314 314 315 315 316 317 318 319 319 320 321 321 322 323 324 323 322 322 322 322 321 319 319 320 318 317 319 321 319 319 322 323 323 325 323 322 326 331 330 326 329 330 329 333 340 341 340 343 343 335 337 344 347 349 351 350 351 351 351 351 350 351 351 351 351 351 351
305 304 304 304 303 303 301 303 307 305 303 305 307 309 309 306 305 307 311 316 317 317 318 317 317 318 319 320 320 320 321 322 321 322 324 324 322 322 322 320 322 323 319 318 318 319 319 319 319 319 319 322 323 324 325 323 319 319 325 330 330 331 331 334 338 336 332 331 339 340 327 328 341 346 348 350 350 351 350 351 351 350 350 349 350 350 349 349
304 303 302 302 303 303 303 305 305 303 305 307 308 311 308 305 306 307 314 321 319 320 322 319 319 320 321 321 321 321 321 321 323 323 324 325 323 323 323 319 322 323 318 317 319 318 319 318 318 320 320 321 323 323 324 325 318 314 321 327 330 333 333 334 337 330 324 326 337 341 328 325 333 341 348 350 351 352 350 350 350 350 350 348 349 348 348 349
303 301 301 301 303 303 306 306 304 304 307 307 309 310 306 304 307 309 317 319 316 321 324 320 320 321 321 322 321 321 318 318 324 324 323 325 323 323 325 322 322 321 317 317 316 316 319 319 318 321 321 321 322 320 323 325 318 316 324 327 329 334 334 336 335 328 327 330 336 340 333 325 325 334 348 350 350 353 351 351 350 348 349 347 347 347 347 347
301 299 300 301 303 303 305 306 305 307 307 305 306 306 304 305 308 313 318 316 316 323 324 321 320 320 320 322 322 321 319 319 323 323 324 325 323 323 325 324 324 321 318 318 315 315 319 319 319 321 321 320 321 322 324 324 321 321 326 326 328 333 336 338 333 327 330 330 326 332 333 327 323 332 347 350 348 351 352 351 350 348 348 348 347 346 346 346
300 298 299 301 302 303 304 305 306 308 304 304 305 304 305 307 312 317 316 315 319 322 321 320 320 318 321 322 323 322 321 322 322 322 324 324 323 324 324 323 323 321 319 319 320 319 319 319 320 320 320 321 321 323 323 324 324 323 323 325 328 334 337 339 334 328 329 326 323 328 330 326 323 328 340 345 344 348 351 351 350 349 348 347 347 346 345 346
299 298 298 301 303 304 305 305 306 305 303 304 305 304 306 311 316 319 317 316 319 320 319 320 320 319 321 324 324 323 323 323 323 323 324 324 322 321 320 320 321 322 320 319 322 321 319 320 321 320 321 321 321 322 322 324 324 322 325 326 327 332 337 336 334 330 326 323 323 326 329 326 320 323 336 343 345 348 350 350 350 349 348 347 347 346 345 346
299 298 298 302 304 305 305 306 306 304 305 305 304 305 310 316 318 319 321 319 316 319 320 321 320 319 320 322 321 322 324 323 323 324 325 325 323 321 320 319 320 321 319 318 320 320 319 321 321 322 322 321 321 321 322 323 322 322 327 325 322 325 328 327 327 328 324 321 322 326 330 327 319 321 337 347 347 348 348 349 350 348 348 348 346 345 345 346
298 298 298 301 304 304 306 306 305 305 305 305 305 308 313 316 316 317 321 317 314 319 321 319 320 319 319 320 320 321 324 323 322 324 325 325 324 323 324 323 321 319 315 315 316 317 318 320 320 320 322 321 321 320 321 322 322 323 325 320 317 319 320 320 321 323 322 321 323 327 329 327 323 328 339 346 346 345 345 347 349 348 348 348 347 346 346 346
298 298 299 300 303 305 305 304 305 304 305 305 306 311 315 315 315 316 317 316 315 318 321 319 319 320 318 318 319 320 321 323 323 323 324 325 325 325 323 323 323 320 317 315 314 313 315 318 318 318 320 322 321 319 316 318 322 323 321 317 315 317 318 320 321 322 321 320 322 327 328 325 324 332 342 344 341 343 343 344 345 346 347 348 347 346 345 346
298 298 300 301 304 306 306 307 307 305 306 307 308 311 316 316 317 318 315 317 317 318 319 319 319 320 318 318 318 319 319 321 322 322 323 324 323 324 323 321 322 323 321 316 313 312 312 314 318 318 319 320 322 321 319 321 322 323 325 322 317 316 316 318 320 318 318 319 321 326 327 322 321 331 344 343 339 340 340 341 343 344 345 346 346 346 345 345
299 299 301 304 305 308 310 310 309 307 306 309 308 311 315 314 316 317 316 317 318 319 319 318 320 318 317 319 319 319 319 320 321 321 322 323 322 324 324 321 320 322 320 315 315 315 311 313 318 319 319 320 321 322 323 324 320 321 326 321 317 320 319 317 318 319 318 319 322 324 324 325 329 337 342 339 338 339 339 340 342 342 344 344 344 345 345 345
299 300 303 305 307 310 313 312 310 307 307 309 305 309 312 312 314 316 320 320 318 320 319 317 319 317 315 318 319 320 319 319 320 321 321 322 322 324 324 323 321 321 320 318 317 316 312 314 320 320 318 320 321 322 323 321 318 320 319 316 319 325 324 318 317 322 320 316 321 324 322 325 329 332 338 341 339 340 342 341 340 341 344 345 345 346 346 346
303 305 305 307 309 311 312 312 310 307 308 306 305 308 309 310 313 317 321 321 317 318 318 315 316 316 314 315 318 320 319 318 319 319 318 319 320 322 323 322 320 320 322 322 320 319 315 314 319 321 318 319 320 321 322 323 322 320 315 317 323 323 326 325 319 320 319 315 319 322 319 319 319 323 338 346 340 340 344 342 340 343 344 344 344 346 347 347
304 305 307 309 310 311 311 310 309 308 308 304 306 310 310 309 311 316 318 317 315 317 318 315 316 318 316 315 316 319 318 316 316 317 316 317 319 321 322 323 320 320 322 322 321 321 318 313 317 322 321 319 320 320 319 321 322 321 318 323 323 316 319 325 320 318 318 316 317 320 320 319 317 320 331 337 341 346 349 346 343 342 343 343 343 346 347 347
305 306 309 311 310 310 310 309 308 309 307 304 306 309 310 309 310 314 315 315 315 316 317 316 317 318 317 316 316 317 318 315 316 317 315 317 319 320 322 323 321 320 320 322 322 322 321 315 314 320 322 319 319 317 314 316 319 321 321 323 323 318 319 321 319 316 315 316 316 318 319 319 322 329 333 334 344 352 351 351 349 343 342 344 343 344 346 347
305 306 306 310 309 308 309 309 309 307 306 307 307 307 310 311 310 312 313 314 314 314 315 316 317 317 318 318 316 317 319 317 317 317 316 318 319 319 321 321 322 321 319 321 323 322 323 319 314 318 319 316 317 317 315 316 318 317 317 317 318 320 321 320 320 317 315 316 317 317 317 317 326 340 342 342 347 350 351 351 351 348 343 343 344 344 346 348
305 305 305 310 310 309 311 311 309 307 306 307 307 305 307 310 310 311 312 313 313 313 314 315 316 317 317 317 317 317 319 318 318 318 317 318 318 318 320 320 322 321 318 320 321 321 323 320 315 315 314 313 316 320 320 320 321 319 317 317 317 319 318 315 317 318 316 317 318 317 314 315 329 344 343 346 347 342 346 348 346 348 344 343 344 343 346 348
305 304 305 309 309 310 312 312 311 310 307 308 309 307 309 311 311 310 310 311 312 312 313 314 315 316 316 316 316 317 318 317 317 317 317 318 318 319 321 321 321 320 320 321 320 322 327 325 318 314 315 318 320 322 321 319 322 322 319 322 322 321 317 311 313 317 316 317 318 317 313 317 338 355 343 343 348 342 346 350 345 343 343 344 343 340 344 347
305 305 306 308 308 311 312 313 314 313 309 309 311 311 313 313 313 312 311 311 311 311 312 313 313 314 313 314 314 315 315 314 315 316 317 319 320 319 320 320 319 320 321 321 320 323 327 326 319 315 319 322 320 322 321 320 321 320 319 324 321 321 320 316 321 324 318 316 316 317 314 315 342 374 355 344 347 343 344 348 344 343 345 343 341 342 346 347
305 306 307 309 309 311 313 314 315 315 313 313 313 313 314 314 314 314 314 313 313 312 312 313 313 313 313 314 314 315 315 314 315 317 317 319 321 320 321 318 318 321 321 322 324 323 322 324 321 315 316 318 318 319 318 318 320 318 320 324 321 323 324 321 329 330 320 316 316 315 313 315 341 376 360 345 344 339 338 340 341 346 349 344 342 345 348 348
306 307 308 310 311 312 314 313 313 313 314 315 316 316 316 316 315 315 314 314 315 314 313 313 314 313 314 315 315 315 316 315 316 318 319 320 321 324 325 321 321 323 322 326 328 322 323 328 323 315 314 315 315 316 316 317 319 319 322 323 321 324 323 320 323 320 317 322 322 315 312 320 343 363 350 344 346 343 342 341 339 344 346 345 345 346 348 350
307 309 310 312 312 312 313 312 311 311 312 314 316 317 316 316 317 317 315 315 315 315 315 314 315 315 315 315 315 315 316 316 316 319 322 322 321 325 328 327 325 326 331 337 333 329 334 335 327 321 319 316 317 321 325 324 319 316 319 320 321 323 322 324 321 315 319 325 321 321 324 322 332 348 348 348 349 348 350 347 347 352 349 345 347 347 348 349
307 309 312 313 312 311 312 312 311 311 311 313 316 317 317 317 317 318 319 317 317 317 317 316 317 319 319 318 317 316 316 317 317 318 321 321 321 322 324 325 326 331 344 346 335 332 334 327 325 328 325 322 324 327 329 326 319 317 318 318 320 322 323 322 318 321 331 322 313 331 345 327 325 343 352 354 355 352 354 352 351 357 354 347 346 346 346 346
308 310 311 311 311 311 312 311 311 310 311 313 314 315 316 316 317 319 319 318 318 318 320 320 319 320 321 321 320 320 320 319 319 320 320 320 322 321 320 322 325 332 341 337 331 335 330 320 321 326 324 324 326 325 326 325 322 321 320 319 320 322 321 320 319 328 337 322 313 337 354 335 330 340 345 350 355 353 357 357 350 349 349 346 345 345 344 344
307 308 308 308 309 310 310 310 311 311 313 314 314 315 316 316 318 319 317 317 319 319 320 322 321 321 321 321 321 322 322 320 319 321 323 322 323 322 321 322 324 329 331 328 330 334 326 324 329 324 319 323 325 324 325 323 322 321 321 321 322 322 322 322 323 328 333 327 324 342 353 343 336 337 341 348 352 349 352 352 344 343 346 346 345 346 344 343
305 305 306 307 308 308 309 310 312 312 312 311 312 315 317 318 319 317 315 316 319 321 321 322 323 322 323 323 323 323 323 322 322 325 326 324 324 325 325 324 326 329 330 329 332 331 324 328 337 327 317 320 322 322 324 322 321 320 319 323 323 322 322 322 324 328 330 330 333 340 343 341 339 339 344 351 352 348 348 347 344 346 347 346 345 345 344 344
303 303 305 306 308 308 309 311 311 311 310 310 312 314 315 317 316 314 314 315 316 320 321 320 320 320 322 324 326 326 324 323 323 324 325 324 325 326 327 327 328 331 333 331 331 332 329 328 331 326 317 317 320 322 321 321 321 318 317 321 321 319 320 320 324 328 328 329 333 331 329 333 339 341 342 344 345 344 345 349 350 349 346 345 346 347 345 346
302 302 304 306 308 308 308 309 309 309 309 310 313 313 311 312 312 312 315 316 315 316 317 316 315 317 320 325 326 325 320 318 319 320 321 322 322 323 324 326 327 329 335 337 334 334 335 330 327 325 319 317 322 322 319 319 318 315 317 321 322 322 322 321 324 329 330 330 330 326 326 332 341 343 341 340 342 343 346 349 352 354 351 348 347 348 347 346
Wind_Speed
21 21 20 20 19 19 20 21 21 21 21 22 22 23 23 23 23 24 24 23 22 22 23 23 22 22 21 20 20 21 23 25 24 16 10 18 20 17 18 15 9 11 14 13 18 18 15 13 12 14 11 7 4 2 7 6 4 3 2 2 2 4 6 8 11 8 5 9 12 12 13 11 11 8 5 8 10 10 9 6 6 5 6 11 14 21 23 21
22 21 21 21 20 20 20 21 22 22 22 22 23 23 24 24 24 24 24 24 23 22 22 23 22 21 20 19 18 19 23 24 20 14 14 12 11 12 12 16 14 13 14 17 21 18 12 11 13 14 9 5 4 3 6 5 6 4 1 2 3 5 6 8 12 10 6 10 13 12 13 11 11 11 8 8 10 10 8 7 8 9 11 13 19 23 22 22
23 22 21 21 21 21 21 21 22 23 23 23 23 24 24 25 25 25 24 24 25 24 22 22 22 21 19 17 16 18 20 16 11 8 5 7 9 15 8 10 15 15 15 16 19 18 13 13 17 15 8 5 3 4 4 4 6 4 2 4 4 6 5 6 12 11 8 12 15 13 12 11 11 11 8 9 11 10 9 9 10 12 14 16 19 22 22 22
24 23 22 21 21 22 21 21 22 23 24 24 24 25 25 25 26 26 26 25 25 25 23 22 21 20 17 14 13 15 14 9 5 2 4 10 15 16 10 4 10 14 15 15 14 16 14 12 17 12 6 5 2 2 4 4 4 2 4 6 2 5 6 8 13 12 9 13 15 13 13 11 11 10 8 12 12 9 10 11 12 14 17 19 20 21 23 22
24 24 23 22 22 22 22 21 22 23 24 25 25 25 25 26 25 26 27 27 26 25 24 21 20 19 15 11 10 11 8 4 1 1 4 15 18 15 11 7 8 11 13 16 13 13 11 10 11 6 3 4 3 3 4 5 3 2 5 5 2 7 6 9 13 12 12 13 13 14 14 12 11 9 10 15 12 6 8 12 13 15 17 20 21 21 21 21
24 24 24 24 23 23 23 22 22 23 24 26 26 26 26 26 26 26 27 29 28 25 24 21 19 17 13 9 6 5 3 3 5 10 13 15 16 14 9 7 10 11 14 17 14 13 10 7 9 6 3 3 5 6 3 3 3 4 5 3 4 8 6 8 13 13 14 15 14 14 12 12 13 9 11 16 7 3 5 13 15 16 18 21 22 21 20 19
24 24 24 24 24 23 24 23 23 24 25 26 27 27 27 27 27 27 28 29 28 25 24 22 18 14 10 5 2 1 2 7 16 21 16 11 14 18 11 4 10 16 19 18 14 12 9 8 8 6 5 4 4 6 2 3 4 5 5 2 4 7 7 10 14 15 16 17 15 13 12 15 15 9 11 14 3 4 7 14 15 18 20 21 20 19 19 20
24 24 24 25 24 24 25 24 25 26 27 28 28 28 27 28 28 28 28 28 28 26 24 20 15 11 6 1 0 2 3 11 21 17 8 8 14 19 14 3 11 21 23 21 17 12 9 9 9 5 5 4 4 5 3 3 5 7 7 2 2 5 8 12 14 16 16 12 12 13 12 14 11 8 12 11 0 3 12 15 16 18 20 20 19 19 18 18
25 25 25 26 25 25 26 25 26 28 28 29 29 28 29 29 29 29 28 26 27 26 23 18 12 6 3 2 0 4 6 10 11 6 4 8 13 15 12 2 15 22 20 19 18 13 9 8 8 5 5 4 5 6 4 3 4 6 5 2 3 6 9 13 14 16 14 9 12 15 11 10 8 8 10 7 4 9 14 16 17 18 19 18 17 18 18 17
26 26 26 26 26 26 26 27 27 28 30 30 30 30 30 30 30 29 27 25 25 24 21 14 7 5 5 4 2 5 7 6 6 6 7 8 11 13 8 4 17 20 13 13 14 13 8 6 7 4 2 3 4 4 3 4 1 2 3 1 4 7 9 13 15 15 12 11 15 15 10 9 9 7 7 6 8 13 15 16 17 17 18 17 16 16 16 17
26 26 26 27 27 27 27 28 28 29 30 31 31 31 30 31 30 28 26 25 22 20 15 9 6 7 7 5 4 7 6 6 7 8 8 11 14 12 4 8 18 17 11 8 8 12 8 5 7 2 1 4 5 4 2 3 1 5 7 7 4 8 9 11 15 15 11 9 12 12 10 8 8 6 5 9 12 14 16 17 17 17 15 15 15 14 13 15
26 27 27 27 28 28 28 29 29 30 31 31 31 31 32 32 29 26 25 21 16 13 9 4 7 10 6 3 8 13 13 12 12 13 15 17 17 10 2 9 17 17 14 8 7 14 9 5 8 2 1 5 5 3 1 1 4 7 9 8 7 9 8 9 12 15 12 9 12 13 9 6 9 7 6 13 13 13 15 16 16 16 14 13 14 12 11 14
27 27 27 28 28 28 28 30 31 31 31 32 32 32 33 31 27 25 20 14 10 7 3 3 8 10 5 3 9 14 16 16 17 19 19 17 15 7 5 9 15 16 15 12 11 14 10 6 4 1 2 4 3 1 2 4 4 6 6 7 9 7 6 7 8 13 10 9 16 14 4 7 12 8 9 14 15 15 15 14 15 13 12 12 12 11 11 13
27 28 28 28 29 29 29 30 33 33 32 32 32 33 32 29 26 20 12 8 5 2 2 5 9 9 3 6 10 14 14 13 14 14 12 11 8 6 8 11 14 15 13 11 8 7 9 6 2 2 2 1 2 2 4 5 2 5 6 5 7 5 7 7 7 13 10 7 16 14 6 6 10 9 11 14 16 17 16 15 15 13 12 12 11 12 11 13
28 29 29 29 29 29 29 31 34 34 33 33 33 31 29 27 21 12 5 3 2 2 5 7 9 5 2 9 11 10 8 7 7 5 5 3 6 8 11 14 15 14 11 9 4 1 6 7 3 3 3 1 3 5 6 4 2 5 4 4 5 4 7 7 7 13 10 8 13 12 6 3 6 11 13 14 16 17 15 15 16 14 14 13 12 12 11 12
29 30 29 29 29 29 31 32 35 35 34 34 33 28 26 23 13 4 1 2 2 5 6 5 6 4 3 5 4 3 4 5 3 3 4 2 4 7 11 14 11 9 8 6 4 2 4 6 2 1 2 3 5 6 6 4 4 3 3 5 6 5 7 7 7 10 8 10 13 11 6 1 3 11 15 15 17 17 15 14 15 15 14 14 12 11 11 11
30 31 31 30 30 31 32 34 36 36 35 34 30 26 22 14 4 2 3 4 3 6 6 2 3 2 5 4 4 4 3 4 3 6 8 7 6 10 13 9 5 6 5 3 4 2 3 3 1 1 1 2 4 7 7 6 6 4 2 3 5 7 9 8 8 9 9 13 15 12 9 3 2 10 15 16 18 17 15 15 15 14 13 12 11 11 11 11
30 31 31 31 32 33 34 37 36 36 37 31 27 25 15 4 1 3 5 5 4 4 3 1 2 2 4 2 3 4 2 6 11 13 10 5 6 14 12 6 6 8 6 4 3 3 2 1 1 2 4 3 5 8 8 6 9 9 7 5 4 6 10 10 8 10 13 14 15 14 13 9 4 10 14 15 18 17 15 15 15 15 14 13 12 11 12 12
30 32 31 32 34 33 36 37 36 38 34 25 24 19 6 1 1 3 3 2 2 3 2 2 4 2 3 2 4 7 7 11 13 10 3 3 8 11 7 7 8 8 5 4 3 4 3 2 2 5 7 7 8 10 9 8 11 12 9 8 9 8 8 9 6 8 14 13 13 15 15 12 8 11 14 15 16 16 14 14 13 13 14 12 12 11 12 13
31 32 30 32 34 35 38 36 37 37 26 22 25 14 1 2 1 1 0 3 5 6 7 5 7 6 9 8 5 6 9 7 6 4 4 6 9 9 4 4 6 4 5 6 5 3 4 5 6 7 9 10 11 10 7 6 11 10 5 5 10 10 7 9 7 7 13 10 11 13 11 9 8 10 14 14 15 15 14 14 13 13 13 12 13 13 13 14
32 32 32 34 35 37 37 36 39 30 16 21 22 7 1 3 2 3 5 7 8 8 12 12 11 13 13 9 3 3 4 3 4 5 6 8 10 9 3 2 5 4 3 4 3 3 4 8 8 8 9 11 11 9 6 6 10 11 7 5 8 8 5 8 8 8 11 10 9 7 8 9 5 7 11 13 15 17 17 17 15 16 14 12 14 16 15 13
32 32 34 35 37 39 36 37 36 19 12 21 15 3 2 3 3 3 4 7 9 9 13 14 12 14 16 15 12 4 2 5 6 7 9 8 6 6 3 3 7 5 4 3 3 4 6 9 9 8 6 6 6 7 7 7 9 10 8 6 6 5 3 4 7 9 10 9 7 5 8 9 4 6 11 14 16 15 16 17 15 16 15 14 15 15 15 13
31 33 35 35 39 39 36 38 27 8 15 23 9 1 4 3 8 4 4 6 8 6 10 12 10 11 11 12 12 10 8 8 7 7 11 12 6 5 6 5 6 5 5 7 7 7 7 6 8 7 5 8 5 6 8 6 6 7 8 8 6 6 6 5 6 9 10 5 2 5 7 7 3 6 10 14 15 11 12 15 13 14 15 16 17 15 15 16
32 33 33 36 40 39 37 33 13 5 23 24 6 5 6 3 14 6 3 5 7 4 6 9 6 7 8 6 9 15 10 7 6 5 11 14 6 5 7 6 6 5 5 8 7 7 5 1 6 8 7 11 8 7 10 7 5 5 7 10 6 8 10 6 6 8 8 4 2 5 5 7 6 9 10 11 13 12 11 13 13 14 15 14 15 15 15 16
32 32 34 38 38 39 38 23 5 13 28 17 4 7 4 10 16 6 2 3 5 4 3 5 3 6 6 3 9 12 6 5 9 7 10 13 9 6 5 3 4 7 6 7 5 7 6 1 7 11 9 10 9 9 11 9 7 5 7 9 8 12 10 6 11 10 6 5 7 8 6 6 7 12 12 9 12 15 12 14 17 15 15 14 13 14 15 16
32 33 37 39 37 40 32 10 8 24 24 6 7 7 3 17 17 3 3 2 4 3 1 3 3 5 5 5 7 7 5 4 7 7 7 12 12 7 5 3 1 4 6 6 3 4 4 3 7 11 11 11 10 9 10 10 7 5 6 8 7 10 11 12 14 11 5 5 8 12 10 6 4 9 12 11 12 16 14 15 18 16 15 15 14 14 15 16
34 36 39 39 36 35 20 7 18 23 10 1 4 5 11 19 11 2 3 2 3 2 1 1 2 4 4 6 8 7 3 1 2 7 9 13 12 4 5 8 2 2 5 3 3 3 4 6 6 8 11 12 10 9 9 10 8 4 6 11 10 10 13 15 14 10 5 2 5 11 9 6 6 5 8 12 12 14 15 17 18 17 17 18 17 17 16 17
37 38 39 38 36 29 13 13 19 12 3 3 5 9 16 15 4 3 1 2 1 1 1 1 1 3 2 4 9 5 1 1 2 4 8 12 10 2 6 12 8 7 7 6 7 2 4 9 9 9 9 9 8 7 9 12 9 2 4 10 11 10 13 15 13 8 4 3 4 8 6 4 8 2 4 10 12 13 17 20 20 20 20 20 19 19 19 18
39 39 38 39 38 27 11 10 13 9 9 10 9 13 15 6 2 2 0 1 1 1 1 1 1 2 3 3 8 6 3 1 1 1 5 7 6 2 4 9 10 11 9 8 9 2 2 7 9 11 8 8 6 4 10 15 7 3 7 8 6 5 8 9 8 5 4 5 7 8 10 6 7 4 5 6 9 13 16 17 19 20 20 20 19 20 20 17
41 39 38 38 32 21 10 12 18 14 12 10 10 14 10 1 3 2 3 2 2 1 1 1 1 1 2 4 5 6 5 4 1 3 5 5 4 2 1 3 6 9 6 6 9 5 1 1 4 8 7 7 6 3 9 12 8 10 11 9 8 5 4 3 1 2 3 6 7 10 15 10 8 5 6 7 9 13 14 12 15 17 19 19 18 19 19 16
43 40 38 35 27 16 8 10 13 7 2 4 11 11 4 1 2 3 5 2 2 1 1 1 1 1 2 2 2 3 6 5 1 6 6 5 5 3 4 4 3 5 5 6 6 3 3 3 3 4 4 5 6 5 5 4 7 10 8 7 7 4 3 3 2 2 5 6 5 7 13 11 9 6 6 9 12 12 12 12 15 18 20 20 19 19 18 16
44 41 37 34 25 15 12 12 10 4 1 6 11 5 2 2 3 4 2 0 2 1 1 1 1 1 1 1 2 2 3 4 5 8 9 8 7 7 9 7 7 6 6 7 6 2 6 6 2 2 3 7 8 7 5 3 5 7 6 8 7 3 4 4 3 4 5 5 2 3 9 8 8 10 9 9 11 13 13 13 13 16 19 20 19 19 17 15
44 42 36 31 24 18 20 20 17 14 12 10 7 1 3 4 5 6 5 3 2 1 1 0 1 2 3 2 2 2 2 3 5 8 8 8 9 9 8 6 11 10 5 6 8 5 5 4 4 6 3 6 11 10 7 5 6 8 8 9 7 5 6 6 3 1 4 5 1 4 9 6 4 9 12 14 17 16 13 13 10 9 14 17 17 17 16 16
44 40 35 30 23 17 15 14 13 13 11 7 2 2 5 6 3 6 10 8 2 2 0 1 3 5 3 2 2 1 2 1 3 6 7 7 8 9 6 4 10 8 3 6 7 7 8 6 7 10 4 6 12 11 7 7 7 9 7 6 7 6 5 5 4 4 4 3 2 5 6 6 5 2 5 11 14 10 10 12 10 8 10 13 14 15 15 16
42 37 32 25 16 8 5 5 7 6 6 5 3 4 8 7 2 4 7 7 3 3 2 0 4 7 5 2 1 0 2 1 2 3 6 7 8 9 8 7 9 7 5 6 4 4 8 6 4 6 2 7 10 6 5 8 8 6 3 5 7 6 5 3 2 3 3 2 3 5 4 4 3 5 8 8 8 8 8 9 11 12 11 11 12 14 15 15
42 36 26 16 9 6 6 6 6 10 8 5 5 7 7 4 2 3 3 4 4 2 2 2 2 4 5 3 1 1 1 1 2 1 4 5 6 8 9 7 10 12 9 7 3 3 6 5 4 4 3 7 9 7 8 8 6 4 4 7 3 2 5 4 1 2 2 4 4 4 4 3 2 8 10 8 8 11 9 7 12 13 11 12 12 14 15 15
37 29 17 12 11 10 8 6 10 13 6 4 7 8 5 3 3 3 2 1 2 2 2 4 3 3 4 2 2 1 1 1 1 1 2 3 3 6 8 6 9 14 13 10 5 3 4 5 5 8 10 9 6 7 11 10 6 5 7 8 5 2 2 2 3 3 3 7 4 4 7 6 3 5 4 3 8 12 11 10 11 9 10 14 13 13 15 16
27 18 11 10 11 9 4 5 13 11 4 5 9 7 5 5 4 3 2 1 1 2 3 5 3 2 2 2 2 1 2 1 0 2 1 4 3 5 9 7 9 14 15 12 7 3 5 5 4 9 13 9 5 6 10 9 4 0 4 9 6 3 4 2 3 4 5 7 4 4 7 6 6 5 3 5 7 8 9 9 9 10 12 14 13 13 15 16
17 8 4 4 7 5 3 9 10 6 3 7 9 7 4 5 5 4 3 2 1 2 3 4 3 2 3 2 1 1 2 2 1 2 2 4 2 4 6 4 8 14 15 13 8 4 5 6 4 4 6 5 6 7 11 10 5 1 3 8 3 3 5 4 4 4 5 7 4 5 6 4 6 6 6 10 9 8 9 8 8 12 13 13 13 13 15 15
8 3 2 2 7 9 10 10 5 3 5 5 6 5 2 4 5 5 5 5 3 3 3 4 3 3 3 2 3 3 2 3 3 2 2 2 2 3 5 4 6 9 12 14 10 5 5 6 5 3 2 3 6 8 11 13 9 5 7 8 4 2 2 2 3 2 4 6 5 6 6 4 4 5 8 12 10 9 10 10 9 9 11 13 13 13 14 14
5 2 1 3 8 11 8 4 3 3 4 3 3 4 3 3 4 4 5 6 5 4 3 4 5 4 3 3 4 3 2 3 4 3 2 3 4 3 5 6 6 6 7 9 9 7 5 5 6 4 4 7 8 7 10 14 12 10 9 9 9 6 4 5 6 2 2 4 3 5 7 4 4 5 8 10 10 12 12 10 9 9 9 10 11 12 12 12
3 2 3 2 3 3 0 4 3 2 4 3 2 3 4 5 4 4 4 4 6 5 3 4 6 5 4 5 5 4 3 4 5 5 4 5 8 6 3 3 5 7 6 6 9 9 4 3 6 8 7 9 7 5 6 10 12 13 12 10 11 9 8 9 8 4 3 3 1 1 5 4 3 4 8 10 10 10 8 6 7 10 8 4 7 11 11 11
2 5 9 8 6 5 3 3 4 3 5 5 5 5 4 4 4 4 3 4 5 5 4 5 6 7 7 7 7 7 6 6 7 8 7 7 10 10 6 3 5 5 5 5 8 8 4 2 6 7 5 5 4 2 2 2 7 12 12 12 12 12 12 10 5 4 5 5 4 2 5 4 3 2 4 7 8 7 6 5 8 10 6 3 6 9 10 11
4 7 7 5 6 7 4 3 3 3 4 5 7 8 7 6 5 5 6 5 4 4 5 5 6 7 8 7 8 9 8 7 8 10 9 6 5 7 9 7 4 4 6 5 5 7 5 3 5 6 5 5 6 7 5 3 5 7 7 9 12 15 13 5 2 2 5 8 10 7 6 5 3 1 1 5 7 9 11 9 7 8 6 5 6 7 9 10
5 4 4 3 4 6 3 2 2 2 3 4 6 7 8 7 6 8 9 8 5 4 4 4 5 6 6 6 8 9 10 9 7 6 6 6 4 4 4 6 6 6 8 7 5 6 6 5 7 8 9 9 9 9 8 5 4 4 4 5 10 14 13 6 2 5 6 6 8 9 6 4 2 1 3 5 6 9 13 11 7 8 9 6 6 7 8 9
4 3 3 3 2 4 3 1 2 2 3 4 4 4 6 7 6 7 10 10 9 9 7 5 5 5 7 9 9 9 11 11 9 6 5 5 4 2 1 3 4 6 9 10 9 6 2 3 9 11 11 10 9 7 6 6 6 7 8 10 11 13 14 10 5 7 5 4 6 8 6 6 6 5 6 7 7 9 11 9 8 8 9 7 6 6 7 8
2 3 2 3 2 2 2 0 2 4 4 4 3 3 4 7 6 5 9 8 8 10 9 7 8 8 8 9 10 9 11 12 12 11 9 7 6 5 5 4 4 7 10 10 10 8 2 4 11 14 13 14 14 12 9 11 13 14 14 15 14 14 16 14 11 8 6 5 8 6 5 8 9 8 8 8 8 9 9 10 9 7 6 5 5 6 8 9
3 2 2 4 4 3 2 3 6 8 7 4 3 4 6 8 7 5 5 4 4 8 8 6 10 14 12 11 9 8 8 9 11 10 8 7 7 7 9 9 6 5 6 5 7 6 3 6 10 12 15 16 18 16 11 11 14 15 16 17 16 16 17 16 14 10 8 7 11 7 8 11 10 9 10 10 10 11 11 10 7 4 3 5 8 10 11 11
3 3 2 3 3 4 6 7 8 9 8 5 3 5 7 9 8 5 2 3 4 6 8 7 8 10 12 12 8 5 6 8 8 7 6 8 8 6 7 9 5 4 2 3 5 3 3 5 5 9 13 15 17 15 11 12 13 13 15 17 18 19 19 19 18 15 14 13 11 8 10 12 11 11 11 10 9 8 5 3 4 5 7 8 10 12 12 13
3 3 3 4 4 6 7 6 6 6 6 5 5 4 5 6 5 6 5 5 4 2 6 7 4 2 5 7 7 8 9 7 7 5 4 7 7 6 6 6 4 3 1 1 2 1 2 2 3 5 8 11 13 13 12 14 15 15 16 16 15 16 17 17 15 12 12 11 7 5 7 8 7 7 7 5 2 2 3 5 7 9 9 10 11 12 12 13
4 5 5 4 5 5 5 4 4 4 4 4 4 2 3 3 5 9 7 7 9 6 1 1 4 6 4 5 7 9 7 4 7 8 6 6 6 3 3 3 3 2 0 2 2 2 2 1 1 3 4 6 7 10 12 15 15 17 18 16 13 11 11 12 10 9 10 10 8 6 5 6 7 7 7 7 4 5 8 9 8 8 8 11 12 12 13 14
4 5 4 4 4 4 5 4 3 4 3 2 2 4 4 5 7 9 6 4 7 7 3 6 8 7 4 5 4 3 3 6 9 11 9 8 8 7 5 5 5 4 1 2 2 4 1 1 1 1 3 3 1 3 6 9 9 11 14 16 15 12 11 10 9 9 11 11 9 8 7 8 8 6 7 9 9 9 10 10 8 8 9 11 12 12 12 13
Wind_Direction
352 351 351 351 352 352 352 352 351 351 351 350 350 350 349 348 347 345 343 342 341 341 337 335 335 333 332 331 328 328 325 321 319 317 290 286 296 290 270 256 231 192 181 168 158 149 154 174 164 158 161 172 214 196 178 196 203 199 211 210 191 190 190 180 183 176 146 154 160 164 168 156 152 154 125 129 131 139 142 120 118 98 112 127 128 140 147 151
351 350 350 349 349 349 350 350 349 349 349 348 348 347 346 346 345 343 340 338 338 337 334 331 331 329 329 329 326 327 326 321 314 295 286 304 335 331 278 236 225 202 184 173 168 161 160 177 167 161 165 177 201 175 164 172 187 199 187 213 219 195 188 184 181 173 160 159 158 165 167 161 158 152 152 154 145 153 145 127 126 114 119 125 132 142 150 155
350 349 349 349 347 347 347 348 348 348 348 347 345 344 344 343 343 341 337 336 334 333 332 328 326 326 325 328 325 328 329 320 306 280 306 24 12 351 338 219 218 212 198 185 182 185 187 178 166 163 177 200 188 181 184 165 183 202 206 235 231 187 185 189 181 174 165 152 154 164 164 162 157 152 170 162 153 173 170 151 151 142 141 141 142 148 155 160
349 348 347 347 347 346 345 347 347 347 347 345 343 342 341 341 341 338 335 333 331 330 329 326 324 321 320 326 324 331 331 307 289 192 78 13 345 339 338 258 213 211 206 194 189 201 202 167 162 169 186 199 178 192 200 180 183 165 204 242 210 162 185 194 184 171 155 153 157 158 159 163 158 158 172 158 157 191 195 173 165 157 152 148 149 154 160 164
347 347 345 344 345 345 344 345 347 346 345 343 341 340 339 339 338 336 333 329 328 327 326 324 321 317 317 321 322 334 331 299 316 128 4 345 340 334 315 282 226 213 199 194 188 193 192 154 162 182 186 190 167 181 203 187 180 170 219 250 153 165 193 185 176 162 147 150 153 158 165 159 154 167 177 170 170 194 195 178 162 156 155 153 153 157 163 168
346 345 344 343 342 343 343 343 345 345 343 342 340 339 339 337 335 333 331 328 325 324 323 322 319 313 310 314 326 336 304 283 304 300 314 330 342 345 320 267 232 208 184 186 173 167 175 161 178 184 173 188 177 188 196 161 186 225 229 248 181 186 197 168 163 157 146 151 162 168 162 146 157 177 182 183 193 330 178 165 155 152 155 154 154 159 167 172
346 344 343 342 341 342 342 342 343 344 342 341 338 337 338 336 333 330 329 326 323 322 321 319 316 308 301 320 345 317 216 252 280 294 305 322 346 352 343 281 218 190 174 174 162 162 170 172 187 176 171 178 184 202 173 140 192 232 236 243 205 200 194 165 160 160 156 163 167 161 153 157 171 172 176 190 244 341 158 152 148 148 151 154 157 165 172 176
345 344 342 341 340 341 342 341 343 343 340 339 336 336 337 334 331 328 327 324 321 319 318 316 313 298 285 4 338 283 226 253 279 291 298 318 346 354 356 360 188 179 174 173 163 162 165 172 182 167 180 184 183 187 151 163 193 218 235 235 192 200 184 164 160 163 159 157 150 151 162 168 168 145 169 189 84 125 149 142 146 148 153 159 164 169 174 178
344 343 341 340 339 339 340 341 343 342 339 337 334 335 334 332 330 328 324 321 318 316 315 314 305 277 237 131 62 282 255 259 276 269 263 315 344 352 354 45 172 173 175 177 166 163 170 180 185 185 193 173 178 174 156 215 201 199 224 232 204 190 167 160 158 160 153 143 147 156 162 157 142 134 166 183 123 140 143 141 149 153 159 165 168 172 174 179
343 342 341 339 338 337 338 340 343 342 338 335 333 333 332 331 329 326 322 318 316 312 313 310 280 217 184 159 178 268 274 270 253 241 269 310 337 343 345 144 169 174 171 174 170 167 178 188 179 196 195 145 174 166 146 211 195 165 181 123 198 167 154 159 152 154 147 145 160 159 153 147 146 161 185 174 150 148 146 148 154 158 165 168 171 173 175 180
342 341 340 339 337 337 336 338 341 341 337 334 331 332 331 329 327 324 320 317 315 310 311 303 238 192 172 164 207 250 271 272 255 257 276 297 313 323 320 160 168 178 173 171 183 179 185 182 161 167 192 156 168 163 187 226 118 148 142 86 109 132 138 155 148 152 145 144 162 145 130 137 157 204 199 157 157 157 151 154 160 164 168 171 172 174 179 184
341 341 340 338 337 336 335 336 341 341 336 332 330 331 329 328 325 321 319 317 313 309 310 282 204 176 158 176 228 248 263 271 278 279 279 288 298 304 256 170 169 179 176 166 195 198 192 151 158 164 160 158 153 161 215 178 129 153 140 100 115 122 133 155 150 158 153 147 153 130 117 162 192 208 152 147 158 160 156 158 165 168 170 174 175 176 183 188
341 340 339 338 337 336 335 336 340 340 336 332 330 330 328 326 322 318 318 315 309 309 306 207 180 166 162 225 237 261 274 274 279 281 281 282 281 270 210 177 172 178 180 174 183 198 189 145 152 119 145 168 152 171 123 118 132 149 135 121 133 129 155 166 154 160 152 146 156 151 167 203 201 193 141 152 159 158 161 164 170 171 172 177 180 183 186 190
341 340 339 338 337 336 335 335 339 340 335 332 330 328 327 324 319 317 317 314 320 319 180 161 162 157 178 254 266 283 284 275 274 278 286 277 248 210 189 178 177 183 191 194 184 200 197 167 116 113 166 204 136 146 122 115 142 144 132 135 150 158 167 161 160 166 153 152 169 179 227 212 189 177 152 162 163 163 169 170 175 176 176 180 183 188 191 194
341 340 339 337 336 335 335 335 338 339 335 332 330 328 327 322 318 319 319 328 14 132 143 138 152 157 260 273 281 288 268 260 275 288 315 273 178 167 187 183 182 193 203 210 202 210 190 171 154 164 161 118 147 148 131 125 138 148 151 162 182 177 153 152 177 179 164 163 180 191 227 232 184 172 162 169 169 170 175 174 179 179 180 184 184 191 193 195
340 339 338 337 336 335 335 336 339 339 336 332 329 328 326 320 318 331 5 59 97 137 126 134 171 186 285 284 286 279 240 232 268 335 347 307 192 171 178 176 173 185 194 204 200 108 140 159 168 190 139 149 172 152 138 146 157 183 219 175 181 171 153 160 178 193 171 155 184 205 222 252 175 171 166 172 175 175 178 178 182 183 183 186 186 192 193 194
339 339 338 338 337 337 336 338 340 339 335 333 331 329 324 318 314 75 79 97 115 133 118 116 175 208 265 273 273 269 255 234 283 322 318 307 241 173 151 154 147 149 144 149 182 138 120 163 161 145 159 154 161 157 160 176 172 189 225 179 184 167 162 163 167 193 178 162 187 209 225 240 148 168 171 175 179 179 180 181 183 186 188 189 191 194 195 199
339 338 339 339 338 338 338 339 340 339 335 333 334 332 324 312 121 93 96 98 100 133 121 79 164 237 245 225 271 276 304 293 308 314 309 322 198 175 146 129 132 137 131 107 151 175 152 170 216 171 170 163 164 176 183 183 177 182 187 183 185 174 177 174 165 181 181 182 192 197 220 232 169 170 179 179 182 184 186 184 184 187 190 191 192 197 198 202
338 337 339 338 337 339 339 339 340 338 334 336 342 338 329 96 102 119 116 98 118 200 245 171 183 264 296 269 275 285 302 301 304 300 283 98 162 173 136 116 124 129 148 152 164 188 167 143 194 188 182 179 176 187 195 186 181 184 188 186 179 178 185 175 147 161 177 190 200 198 215 219 182 176 184 183 186 190 191 187 187 190 191 192 195 200 202 206
338 337 338 336 337 339 339 339 340 337 337 346 349 345 32 31 333 145 290 245 228 246 268 239 213 256 286 286 285 299 301 284 271 252 169 137 152 159 131 109 117 125 161 169 166 174 182 186 197 195 183 175 177 187 189 181 181 179 181 196 187 182 180 169 141 149 175 196 213 211 227 226 193 185 188 184 186 195 197 192 193 192 192 195 197 201 206 210
337 337 337 337 337 339 339 340 339 336 342 355 353 356 81 12 356 332 320 272 245 238 252 246 226 240 257 265 287 16 342 270 243 232 176 149 146 162 197 138 146 168 164 153 138 130 194 205 200 193 184 177 179 177 150 153 177 182 186 195 197 192 173 165 155 148 169 200 218 214 247 248 216 194 192 184 190 200 200 196 195 194 193 196 199 203 207 211
337 336 337 337 337 338 339 339 338 334 347 356 359 57 86 51 21 303 285 290 266 222 236 244 236 248 254 254 257 266 305 265 256 239 192 167 163 183 196 157 175 177 139 143 148 158 203 214 194 184 185 169 164 168 159 160 174 187 194 186 198 191 128 134 157 146 161 203 217 192 233 247 224 207 203 195 200 206 203 200 198 193 193 197 201 203 206 207
336 336 337 338 337 337 339 339 338 333 346 347 341 136 120 64 4 316 222 288 282 224 227 237 238 248 250 254 239 208 212 228 240 236 185 175 182 178 164 168 184 164 148 180 190 185 197 213 186 165 165 159 143 165 167 158 173 187 190 193 195 165 167 189 172 158 160 186 204 168 226 250 214 214 217 211 212 213 212 209 206 199 197 201 202 201 203 204
335 337 337 337 337 337 339 339 338 333 340 339 298 167 137 360 355 359 204 273 281 259 223 219 227 235 242 256 196 186 200 205 214 222 173 168 153 151 171 165 170 174 177 185 196 206 207 199 158 152 173 177 158 163 172 169 184 190 195 202 183 161 196 205 143 148 151 145 133 149 232 254 211 213 219 213 214 219 217 211 212 211 209 209 206 205 205 206
334 336 337 338 338 337 338 338 334 330 335 336 209 159 130 338 347 355 209 281 277 273 222 200 215 226 222 190 166 176 189 210 220 207 171 173 154 141 168 148 175 193 180 166 181 223 228 130 150 159 180 189 169 169 184 182 179 195 212 209 183 174 189 157 135 147 160 198 193 176 237 254 199 213 218 197 204 217 216 212 215 214 213 215 212 210 209 210
333 336 338 339 338 338 341 342 322 327 330 330 181 176 315 331 337 317 194 328 277 266 195 181 195 202 184 155 158 162 168 219 224 195 179 181 163 145 161 147 222 199 163 151 171 238 222 156 167 170 172 184 185 185 190 186 182 195 200 192 178 170 166 152 157 170 185 209 188 185 222 255 195 213 212 193 203 213 212 216 218 214 213 213 212 213 210 210
334 337 338 338 338 341 345 310 314 324 322 199 200 234 308 323 329 205 186 314 267 241 152 188 190 198 183 166 170 168 177 213 163 178 193 188 171 165 189 169 159 168 137 140 198 220 175 165 179 183 176 183 193 192 186 188 191 186 169 171 166 161 164 163 171 189 193 138 152 185 212 263 255 232 193 192 205 213 217 221 219 215 214 213 213 214 212 209
335 336 337 337 335 334 323 288 306 314 258 282 287 288 311 320 307 179 242 301 241 100 159 198 165 178 147 158 186 201 310 80 143 185 190 188 183 196 202 182 169 162 151 178 206 180 162 186 186 179 184 193 196 182 168 181 197 190 144 165 165 167 170 170 182 197 176 159 186 186 183 239 253 250 140 188 205 215 221 221 219 216 214 213 213 213 213 212
335 335 335 335 330 328 321 276 275 281 288 296 299 308 321 322 202 188 297 241 242 8 143 175 153 157 92 142 207 251 311 239 282 87 150 183 206 230 197 180 166 163 162 195 215 192 170 206 190 180 190 201 198 160 165 183 198 127 121 126 122 143 156 167 192 180 136 209 220 184 177 212 251 223 144 179 210 222 224 221 219 216 212 212 212 213 213 212
334 333 334 334 327 324 325 274 268 288 299 292 313 327 327 264 183 190 185 212 290 342 175 212 163 170 129 150 212 243 246 260 344 117 141 168 203 231 110 124 150 163 161 204 220 216 214 200 175 190 203 194 186 167 181 186 162 130 124 111 94 90 112 112 133 129 152 223 230 193 186 207 253 231 162 184 213 214 216 220 217 213 213 213 213 213 212 208
332 332 332 329 317 305 303 274 277 310 329 310 336 334 308 192 193 211 193 210 305 237 188 238 154 126 149 160 261 224 215 251 191 149 161 167 175 160 133 121 136 165 169 196 209 222 244 212 167 204 209 174 174 183 195 185 150 148 137 130 123 99 118 111 84 168 200 225 238 204 189 203 242 244 187 202 220 215 212 217 210 206 209 211 212 212 210 206
331 331 329 322 310 281 254 260 274 280 258 325 334 319 202 187 226 220 189 158 269 208 121 176 150 3 289 215 237 198 199 229 192 171 171 178 181 174 175 175 167 177 189 191 186 201 229 220 204 236 201 177 185 185 180 170 179 182 157 156 164 148 167 176 171 192 211 230 275 164 180 200 240 254 247 233 236 231 224 226 217 205 206 208 209 209 205 200
331 331 327 320 310 279 265 273 269 259 268 294 314 282 188 227 221 188 187 208 207 76 69 148 274 288 274 274 254 225 218 200 190 187 176 178 187 184 190 181 173 185 193 182 186 189 206 226 227 224 213 185 194 195 186 174 185 192 170 169 182 171 180 191 172 177 224 231 245 153 183 206 237 253 256 250 249 240 227 234 236 213 207 208 208 207 203 201
331 331 326 319 310 291 281 279 263 254 262 262 242 178 202 229 212 173 200 215 227 350 113 143 323 304 274 278 307 275 231 193 172 185 177 173 188 192 196 189 185 188 152 167 194 195 202 218 203 201 193 173 198 211 193 158 175 196 178 179 193 176 187 195 174 196 211 202 150 156 186 206 189 230 258 247 261 261 231 229 227 215 213 209 208 206 204 204
331 333 327 319 313 308 304 286 258 217 191 182 177 200 208 214 193 176 206 217 238 287 266 93 339 316 301 266 287 73 209 231 95 180 190 178 188 193 186 189 193 186 157 176 191 184 210 232 196 194 194 172 193 208 163 155 181 195 165 197 206 178 174 186 178 194 183 161 169 177 213 221 209 310 294 257 272 270 238 220 212 214 208 194 199 204 202 202
334 336 330 320 322 319 310 292 229 182 174 178 190 211 219 216 188 178 194 201 203 237 281 296 293 280 281 263 202 118 219 253 77 198 210 189 202 195 184 187 186 186 185 186 178 160 206 227 172 175 220 195 190 175 172 193 191 157 180 206 200 144 167 170 136 89 141 222 199 175 232 240 239 284 273 251 256 255 243 219 216 216 192 182 197 200 197 197
334 335 324 315 326 319 304 272 193 176 175 193 202 215 221 218 212 208 200 175 180 142 184 242 226 214 247 240 174 123 310 293 106 264 212 188 220 193 186 192 182 190 194 189 199 193 201 215 175 186 211 210 198 183 195 208 175 152 198 180 105 50 203 174 198 162 182 226 211 172 222 228 208 242 251 225 239 244 238 222 218 208 183 193 205 196 191 194
326 319 298 307 331 329 302 199 176 170 167 204 221 232 216 209 216 217 210 140 144 131 167 210 215 194 227 223 173 146 328 316 79 327 228 195 223 183 182 185 179 193 197 194 210 199 197 224 190 196 210 194 155 190 209 207 180 215 194 158 138 202 192 166 208 185 192 223 216 189 217 232 219 218 241 245 247 252 246 225 204 197 196 204 206 195 192 195
319 304 284 341 6 15 129 156 159 169 191 200 219 229 209 218 231 223 220 197 180 185 201 219 219 213 220 207 202 237 317 309 292 315 246 197 222 183 183 190 188 195 192 188 196 161 178 225 212 190 208 171 152 194 212 203 183 30 159 163 187 226 184 185 195 178 203 221 217 201 208 219 218 213 223 237 247 254 256 247 213 202 202 204 201 195 194 195
323 298 280 50 66 82 114 136 143 196 212 203 217 222 196 224 238 234 226 224 222 213 215 216 209 223 222 220 255 254 262 264 244 262 236 196 234 212 202 207 192 193 190 188 192 170 166 219 224 165 129 174 190 199 211 207 188 179 188 183 189 192 156 202 191 161 213 215 206 218 223 201 194 210 216 228 241 241 243 251 241 221 206 202 201 196 193 192
317 292 242 107 104 103 114 163 184 194 226 244 228 223 231 240 248 255 232 219 224 232 230 214 209 218 228 233 242 223 227 249 225 229 245 224 238 232 208 207 183 157 164 184 198 194 174 196 215 192 172 204 209 197 212 218 199 191 202 194 189 183 163 199 209 180 206 221 198 220 241 218 175 202 213 218 233 237 236 239 247 252 233 209 202 201 197 191
291 277 304 306 179 138 131 240 209 201 237 254 261 245 254 257 252 253 238 206 212 224 224 216 211 209 219 234 240 223 230 252 231 231 246 232 233 240 217 187 162 149 156 188 204 197 168 169 209 216 213 215 210 176 204 226 207 199 207 203 198 196 189 207 216 176 169 219 124 213 252 231 172 197 213 217 230 241 245 240 248 259 254 219 204 205 199 193
271 283 304 301 237 223 276 246 213 221 227 248 285 276 259 261 257 247 229 203 206 210 208 209 211 216 223 225 231 230 228 243 239 230 235 236 234 240 238 180 138 159 188 198 194 183 153 149 202 220 232 230 226 176 133 229 209 207 210 202 200 207 209 215 212 167 189 194 160 204 240 209 175 182 223 242 255 266 270 245 240 256 263 224 207 202 193 192
292 279 297 302 220 216 257 254 233 246 245 264 276 268 260 259 255 249 237 221 203 190 201 208 201 214 224 216 222 225 212 220 233 224 224 232 226 240 248 229 191 195 208 206 183 172 177 185 193 211 225 222 219 211 201 199 205 216 216 202 204 207 204 204 105 153 217 195 184 216 230 193 178 98 231 251 257 261 261 246 235 254 259 225 205 198 190 187
302 267 261 278 215 211 246 295 328 306 304 306 286 268 261 251 240 237 239 244 240 215 214 218 202 209 218 210 220 225 213 219 238 224 214 224 230 256 259 226 209 213 224 229 209 180 183 187 184 202 218 216 212 214 213 198 193 217 215 199 208 203 190 172 147 204 219 188 187 220 228 189 185 222 235 239 237 248 255 249 236 246 250 231 204 195 189 185
315 286 273 295 207 208 245 287 7 350 349 339 306 270 251 248 244 229 227 236 241 234 238 242 224 221 225 223 230 232 223 226 236 234 230 228 231 245 195 185 214 236 247 243 217 190 171 184 189 201 217 220 217 213 192 174 187 210 211 203 204 201 192 186 195 211 201 166 194 218 218 209 205 201 219 231 227 236 248 245 233 237 241 231 208 196 189 187
287 284 308 336 313 261 251 132 40 358 340 324 302 301 279 267 266 232 212 217 226 224 229 235 227 227 223 217 227 235 229 229 231 235 247 250 254 276 284 289 270 253 267 258 212 183 162 203 199 203 214 220 223 218 193 189 203 210 212 211 201 195 195 198 210 204 155 168 216 205 187 212 211 196 209 225 225 231 242 241 234 235 235 217 193 186 187 187
265 277 351 346 302 280 295 322 341 330 310 288 274 289 288 279 283 266 224 235 244 214 209 216 219 224 226 218 221 227 220 225 232 234 239 246 257 275 283 285 265 243 283 274 196 174 204 214 199 206 217 221 224 221 197 195 213 212 210 211 201 195 196 201 213 203 161 198 228 197 176 206 211 204 213 221 220 221 227 231 229 234 225 194 184 188 189 184
284 277 331 342 297 283 294 302 313 307 292 283 263 260 274 277 286 304 291 293 282 212 207 220 214 217 230 229 228 227 209 215 228 223 215 228 237 244 263 272 246 210 292 260 183 171 237 215 183 204 224 228 230 225 198 197 219 220 214 211 203 200 199 201 210 204 191 212 228 194 187 207 212 210 215 220 224 226 231 235 221 220 215 197 190 193 190 185
318 297 319 334 303 288 286 287 297 298 292 283 259 249 275 279 300 342 321 269 263 206 193 218 240 296 266 242 234 232 228 235 247 240 219 224 226 214 232 254 231 200 299 314 178 195 237 223 148 178 223 239 237 230 210 205 218 225 223 217 207 203 202 205 210 202 194 214 227 193 197 219 227 227 231 246 260 241 236 228 219 215 205 194 195 196 193 192
294 284 288 301 296 286 284 288 298 300 294 271 253 280 308 304 342 341 311 245 241 257 218 54 344 341 303 250 236 231 239 284 286 279 272 251 251 244 222 256 279 255 31 54 345 287 222 222 110 149 219 240 229 231 225 212 216 227 229 223 209 200 201 208 207 190 186 203 216 210 208 231 238 227 229 245 246 232 234 231 226 221 203 199 202 198 194 194
296 284 274 275 283 284 290 299 287 273 276 279 322 340 316 311 336 332 311 256 246 258 320 12 353 337 299 264 245 230 306 315 286 276 274 262 266 272 257 261 286 280 218 95 340 319 326 331 18 151 236 242 198 246 230 206 212 230 231 224 214 203 202 210 209 200 198 199 205 212 213 226 232 209 207 227 227 226 234 230 225 220 205 203 206 202 197 194